Weather History for La Crosse, WI

Change the Weather History Date:

Sunday, August 12, 2012

  Actual Average Record
Temperature  
Mean Temperature 66 °F 72 °F  
Max Temperature 71 °F 82 °F 98 °F (1936)
Min Temperature 60 °F 62 °F 46 °F (1982)
Degree Days  
Heating Degree Days 0 0  
Month to date heating degree days 3 0  
Since 1 June heating degree days 20  
Since 1 July heating degree days 3 5  
Cooling Degree Days 1 7  
Month to date cooling degree days 74 95  
Year to date cooling degree days 892 582  
Since 1 June cooling degree days 784  
Growing Degree Days 15 (Base 50)    
Moisture  
Dew Point 57 °F    
Average Humidity 77    
Maximum Humidity 93    
Minimum Humidity 61    
Precipitation  
Precipitation 0.04 in 0.14 in 1.07 in (1917)
Month to date precipitation 1.55 1.72  
Year to date precipitation 18.37 21.39  
Snow  
Snow 0.00 in 0.00 in 0.00 in (2002)
Month to date snowfall 0.0 0.0  
Since 1 June snowfall 0.0  
Since 1 July snowfall 0.0 0.0  
Snow Depth 0.00 in    
Sea Level Pressure  
Sea Level Pressure 29.98 in    
Wind  
Wind Speed 3 mph (SSW)    
Max Wind Speed 10 mph    
Max Gust Speed 16 mph    
Visibility 10 miles    
Events Rain    
T = Trace of Precipitation, MM = Missing Value Source: NWS Daily Summary

Daily Weather History Graph

Daily Weather History Graph

Search for Another Location

Airport:

Trip Planner

Search our weather history database for the weather conditions in past years. The results will help you decide how hot, cold, wet, or windy it might be!

Date:

Astronomy

Aug. 12, 2012 Rise Set
Actual Time 6:06 AM CDT 8:12 PM CDT
Civil Twilight 5:34 AM CDT 8:44 PM CDT
Nautical Twilight 4:55 AM CDT 9:22 PM CDT
Astronomical Twilight 4:13 AM CDT 10:05 PM CDT
Moon 1:15 AM CDT (8/12) 4:42 PM CDT (8/12)
Length of Visible Light 15h 09m
Length of Day
14h 06m
Waning Crescent, 24% of the Moon is Illuminated
Aug 12
Waning Crescent
Aug 17
New
Aug 24
First Quarter
Aug 31
Full
Sep 8
Last Quarter

Hourly Weather History & Observations

Time (CDT) Temp. Dew Point Humidity Pressure Visibility Wind Dir Wind Speed Gust Speed Precip Events Conditions
12:53 AM 61.0 °F 55.9 °F 83% 29.99 in 10.0 mi Calm Calm - N/A   Clear
1:53 AM 61.0 °F 57.0 °F 87% 29.99 in 10.0 mi South 3.5 mph - N/A   Clear
2:53 AM 62.1 °F 57.0 °F 84% 29.98 in 10.0 mi SSE 4.6 mph - N/A   Clear
3:53 AM 61.0 °F 57.0 °F 87% 29.98 in 10.0 mi South 3.5 mph - N/A   Clear
4:53 AM 61.0 °F 57.0 °F 87% 29.98 in 10.0 mi SSE 3.5 mph - N/A   Clear
5:53 AM 60.1 °F 55.9 °F 86% 29.99 in 10.0 mi South 3.5 mph - N/A   Clear
6:53 AM 61.0 °F 57.0 °F 87% 29.99 in 10.0 mi SSE 4.6 mph - N/A   Clear
7:53 AM 62.1 °F 57.9 °F 86% 30.00 in 10.0 mi South 5.8 mph - N/A   Clear
8:53 AM 64.0 °F 57.9 °F 80% 30.00 in 10.0 mi South 4.6 mph - N/A   Clear
9:53 AM 66.0 °F 57.0 °F 73% 29.99 in 10.0 mi SE 3.5 mph - N/A   Clear
10:53 AM 68.0 °F 57.0 °F 68% 29.99 in 10.0 mi SSW 4.6 mph - N/A   Clear
11:53 AM 69.1 °F 57.0 °F 65% 29.99 in 10.0 mi SSW 6.9 mph - N/A   Clear
12:53 PM 68.0 °F 55.9 °F 65% 29.99 in 10.0 mi SSW 8.1 mph - N/A   Mostly Cloudy
1:53 PM 68.0 °F 57.0 °F 68% 29.99 in 10.0 mi SW 4.6 mph - 0.00 in Rain Light Rain
2:53 PM 70.0 °F 55.9 °F 61% 29.97 in 10.0 mi NNW 3.5 mph - 0.00 in   Overcast
3:53 PM 69.1 °F 55.0 °F 61% 29.97 in 10.0 mi WSW 3.5 mph - N/A   Overcast
4:53 PM 68.0 °F 55.9 °F 65% 29.97 in 10.0 mi WNW 3.5 mph - N/A   Overcast
5:53 PM 64.9 °F 57.9 °F 78% 29.97 in 10.0 mi WNW 3.5 mph - 0.01 in Rain Light Rain
6:53 PM 64.9 °F 59.0 °F 81% 29.96 in 10.0 mi Calm Calm - 0.00 in   Overcast
7:53 PM 64.0 °F 59.0 °F 84% 29.97 in 10.0 mi Calm Calm - 0.00 in Rain Light Rain
8:53 PM 62.1 °F 60.1 °F 93% 29.98 in 10.0 mi Calm Calm - 0.01 in Rain Light Rain
9:53 PM 62.1 °F 60.1 °F 93% 29.99 in 10.0 mi Calm Calm - 0.00 in Rain Light Rain
10:53 PM 62.1 °F 60.1 °F 93% 29.99 in 10.0 mi North 3.5 mph - 0.01 in   Overcast
11:53 PM 62.1 °F 60.1 °F 93% 29.99 in 10.0 mi Calm Calm - N/A   Overcast